TimeCDT,TemperatureF,Dew PointF,Humidity,Sea Level PressureIn,VisibilityMPH,Wind Direction,Wind SpeedMPH,Gust SpeedMPH,PrecipitationIn,Events,Conditions,WindDirDegrees,DateUTC
12:15 AM,55.4,46.4,72,29.96,10.0,South,5.8,-,N/A,,Clear,170,2013-04-28 05:15:00
12:35 AM,53.6,46.4,77,29.96,10.0,South,5.8,-,N/A,,Clear,180,2013-04-28 05:35:00
12:55 AM,53.6,46.4,77,29.96,10.0,South,6.9,-,N/A,,Clear,190,2013-04-28 05:55:00
1:15 AM,53.6,46.4,77,29.96,10.0,South,5.8,-,N/A,,Clear,190,2013-04-28 06:15:00
1:35 AM,53.6,46.4,77,29.96,10.0,South,5.8,-,N/A,,Clear,190,2013-04-28 06:35:00
1:55 AM,51.8,46.4,82,29.95,10.0,South,4.6,-,N/A,,Clear,190,2013-04-28 06:55:00
2:15 AM,51.8,46.4,82,29.94,10.0,South,4.6,-,N/A,,Clear,190,2013-04-28 07:15:00
2:35 AM,51.8,46.4,82,29.93,10.0,South,6.9,-,N/A,,Clear,190,2013-04-28 07:35:00
2:55 AM,51.8,44.6,76,29.93,10.0,SSW,5.8,-,N/A,,Clear,200,2013-04-28 07:55:00
3:15 AM,51.8,44.6,76,29.93,10.0,South,5.8,-,N/A,,Clear,190,2013-04-28 08:15:00
3:35 AM,50.0,44.6,82,29.93,10.0,South,4.6,-,N/A,,Clear,190,2013-04-28 08:35:00
3:55 AM,48.2,44.6,87,29.92,10.0,South,5.8,-,N/A,,Clear,170,2013-04-28 08:55:00
4:15 AM,50.0,44.6,82,29.92,10.0,South,5.8,-,N/A,,Clear,180,2013-04-28 09:15:00
4:35 AM,50.0,44.6,82,29.92,10.0,South,4.6,-,N/A,,Clear,190,2013-04-28 09:35:00
4:55 AM,48.2,44.6,87,29.93,10.0,South,4.6,-,N/A,,Clear,190,2013-04-28 09:55:00
5:15 AM,48.2,44.6,87,29.92,10.0,South,6.9,-,N/A,,Clear,180,2013-04-28 10:15:00
5:35 AM,48.2,44.6,87,29.92,10.0,South,4.6,-,N/A,,Clear,180,2013-04-28 10:35:00
6:15 AM,48.2,42.8,82,29.93,10.0,South,3.5,-,N/A,,Clear,170,2013-04-28 11:15:00
6:35 AM,44.6,42.8,93,29.93,10.0,South,3.5,-,N/A,,Clear,180,2013-04-28 11:35:00
6:55 AM,50.0,44.6,82,29.93,10.0,South,6.9,-,N/A,,Clear,170,2013-04-28 11:55:00
7:15 AM,51.8,44.6,76,29.93,10.0,SSW,5.8,-,N/A,,Clear,200,2013-04-28 12:15:00
7:35 AM,53.6,44.6,72,29.93,10.0,South,6.9,-,N/A,,Clear,190,2013-04-28 12:35:00
8:15 AM,55.4,44.6,67,29.92,10.0,SSW,9.2,-,N/A,,Clear,200,2013-04-28 13:15:00
8:35 AM,57.2,46.4,67,29.92,10.0,SSW,8.1,-,N/A,,Clear,210,2013-04-28 13:35:00
8:55 AM,57.2,44.6,63,29.92,10.0,WSW,8.1,-,N/A,,Clear,240,2013-04-28 13:55:00
9:15 AM,59.0,44.6,59,29.92,10.0,SW,8.1,-,N/A,,Clear,230,2013-04-28 14:15:00
9:35 AM,59.0,44.6,59,29.91,10.0,SW,9.2,-,N/A,,Clear,220,2013-04-28 14:35:00
9:55 AM,62.6,46.4,55,29.89,10.0,South,10.4,-,N/A,,Clear,180,2013-04-28 14:55:00
10:15 AM,62.6,44.6,52,29.88,10.0,South,15.0,18.4,N/A,,Clear,180,2013-04-28 15:15:00
10:35 AM,62.6,44.6,52,29.88,10.0,SW,10.4,-,N/A,,Clear,220,2013-04-28 15:35:00
10:55 AM,64.4,44.6,49,29.87,10.0,SSW,12.7,-,N/A,,Clear,200,2013-04-28 15:55:00
11:15 AM,64.4,44.6,49,29.87,10.0,South,13.8,-,N/A,,Clear,170,2013-04-28 16:15:00
11:35 AM,66.2,42.8,43,29.86,10.0,SSW,12.7,18.4,N/A,,Clear,210,2013-04-28 16:35:00
11:55 AM,66.2,42.8,43,29.85,10.0,South,10.4,-,N/A,,Clear,180,2013-04-28 16:55:00
12:15 PM,66.2,42.8,43,29.85,10.0,South,15.0,-,N/A,,Clear,170,2013-04-28 17:15:00
12:35 PM,68.0,42.8,40,29.84,10.0,SSW,11.5,20.7,N/A,,Clear,210,2013-04-28 17:35:00
12:55 PM,68.0,41.0,37,29.83,10.0,South,12.7,-,N/A,,Clear,170,2013-04-28 17:55:00
1:15 PM,69.8,41.0,35,29.83,10.0,South,10.4,19.6,N/A,,Clear,190,2013-04-28 18:15:00
1:35 PM,69.8,39.2,33,29.82,10.0,SSW,12.7,20.7,N/A,,Clear,210,2013-04-28 18:35:00
1:55 PM,69.8,41.0,35,29.82,10.0,South,11.5,19.6,N/A,,Clear,180,2013-04-28 18:55:00
2:15 PM,69.8,39.2,33,29.81,10.0,South,13.8,21.9,N/A,,Clear,180,2013-04-28 19:15:00
2:35 PM,69.8,42.8,38,29.81,10.0,South,13.8,19.6,N/A,,Clear,170,2013-04-28 19:35:00
2:55 PM,71.6,41.0,33,29.80,10.0,SSW,12.7,28.8,N/A,,Clear,200,2013-04-28 19:55:00
3:15 PM,71.6,41.0,33,29.79,10.0,South,17.3,21.9,N/A,,Clear,180,2013-04-28 20:15:00
3:35 PM,71.6,39.2,31,29.78,10.0,South,10.4,16.1,N/A,,Clear,180,2013-04-28 20:35:00
3:55 PM,71.6,39.2,31,29.78,10.0,South,10.4,19.6,N/A,,Clear,180,2013-04-28 20:55:00
4:15 PM,71.6,39.2,31,29.77,10.0,SSW,12.7,20.7,N/A,,Clear,200,2013-04-28 21:15:00
4:35 PM,73.4,39.2,29,29.76,10.0,South,11.5,19.6,N/A,,Clear,170,2013-04-28 21:35:00
4:55 PM,71.6,39.2,31,29.76,10.0,South,9.2,20.7,N/A,,Clear,190,2013-04-28 21:55:00
5:15 PM,71.6,39.2,31,29.75,10.0,SSW,12.7,16.1,N/A,,Clear,200,2013-04-28 22:15:00
5:35 PM,73.4,39.2,29,29.75,10.0,South,16.1,-,N/A,,Clear,190,2013-04-28 22:35:00
5:55 PM,73.4,37.4,27,29.75,10.0,SW,10.4,16.1,N/A,,Clear,230,2013-04-28 22:55:00
6:15 PM,71.6,37.4,29,29.75,10.0,SSW,11.5,18.4,N/A,,Clear,200,2013-04-28 23:15:00
6:35 PM,71.6,37.4,29,29.75,10.0,SSW,11.5,17.3,N/A,,Clear,210,2013-04-28 23:35:00
6:55 PM,71.6,37.4,29,29.74,10.0,SSW,8.1,-,N/A,,Clear,210,2013-04-28 23:55:00
7:15 PM,69.8,37.4,31,29.75,10.0,SSW,4.6,-,N/A,,Clear,200,2013-04-29 00:15:00
7:35 PM,68.0,39.2,35,29.75,10.0,SW,6.9,-,N/A,,Clear,230,2013-04-29 00:35:00
7:55 PM,66.2,41.0,40,29.75,10.0,SSW,3.5,-,N/A,,Clear,210,2013-04-29 00:55:00
8:15 PM,66.2,42.8,43,29.75,10.0,South,4.6,-,N/A,,Clear,190,2013-04-29 01:15:00
8:35 PM,64.4,42.8,45,29.75,10.0,SSW,3.5,-,N/A,,Clear,200,2013-04-29 01:35:00
8:55 PM,64.4,42.8,45,29.76,10.0,SSW,3.5,-,N/A,,Clear,200,2013-04-29 01:55:00
9:15 PM,64.4,42.8,45,29.77,10.0,SSW,4.6,-,N/A,,Mostly Cloudy,200,2013-04-29 02:15:00
9:35 PM,62.6,48.2,59,29.78,10.0,SW,3.5,-,N/A,Rain,Light Rain,220,2013-04-29 02:35:00
9:55 PM,60.8,48.2,63,29.78,10.0,SW,4.6,-,N/A,,Overcast,230,2013-04-29 02:55:00
10:15 PM,60.8,48.2,63,29.80,10.0,WNW,4.6,-,N/A,,Overcast,290,2013-04-29 03:15:00
10:35 PM,59.0,53.6,82,29.80,10.0,NNW,4.6,-,N/A,Rain,Rain,340,2013-04-29 03:35:00
10:55 PM,57.2,53.6,88,29.79,10.0,Calm,Calm,-,N/A,Rain,Light Rain,0,2013-04-29 03:55:00
11:15 PM,55.4,53.6,94,29.78,7.0,Calm,Calm,-,N/A,,Overcast,0,2013-04-29 04:15:00
11:35 PM,55.4,53.6,94,29.79,7.0,Calm,Calm,-,N/A,Thunderstorm,Overcast,0,2013-04-29 04:35:00
11:55 PM,55.4,53.6,94,29.77,5.0,East,3.5,-,N/A,Rain,Light Rain,100,2013-04-29 04:55:00